Location: Observatoire du C�gep de Trois-Rivi�res � Champlain
(46.4753°N, 72.3231°W)
Time: 06:47:52
(UTC-04:00)

ISS - Visible Passes

Search period start: 16 July 2018 00:00
Search period end: 26 July 2018 00:00
Orbit: 402 x 408 km, 51.6° (Epoch: 16 July)

Date Brightness Start Highest point End Pass type
(mag) Time Alt. Az. Time Alt. Az. Time Alt. Az.
16 Jul -3.1 01:09:48 54° N 01:09:48 54° N 01:12:52 10° ENE visible
16 Jul -1.9 02:43:31 10° WNW 02:46:32 31° N 02:49:33 10° ENE visible
16 Jul -2.9 04:20:12 10° WNW 04:23:27 53° NNE 04:26:42 10° E visible
17 Jul -2.3 00:19:02 29° ENE 00:19:02 29° ENE 00:20:49 10° ENE visible
17 Jul -2.1 01:51:39 12° WNW 01:54:18 33° N 01:57:21 10° ENE visible
17 Jul -2.4 03:28:08 10° WNW 03:31:17 40° NNE 03:34:26 10° E visible
17 Jul -1.5 23:27:57 16° ENE 23:27:57 16° ENE 23:28:41 10° ENE visible
18 Jul -2.4 01:00:31 23° WNW 01:02:05 38° NNW 01:05:12 10° ENE visible
18 Jul -2.1 02:36:00 10° WNW 02:39:04 34° N 02:42:07 10° ENE visible
18 Jul -3.8 04:12:31 10° WNW 04:15:49 89° SW 04:19:07 10° ESE visible
18 Jul -2.2 22:30:23 10° SSW 22:35:10 20° E 22:36:29 10° ENE visible
19 Jul -2.9 00:07:09 13° W 00:09:52 48° NNW 00:13:05 10° ENE visible
19 Jul -1.9 01:43:49 10° WNW 01:46:49 32° N 01:49:49 10° ENE visible
19 Jul -3.3 03:20:26 10° WNW 03:23:42 61° NNE 03:26:58 10° ESE visible
19 Jul -2.6 21:38:54 10° S 21:41:28 22° SE 21:44:04 10° E visible
19 Jul -3.6 23:14:26 10° WSW 23:17:42 70° NNW 23:20:59 10° ENE visible
20 Jul -2.0 00:51:32 10° WNW 00:54:33 32° N 00:57:34 10° ENE visible
20 Jul -2.6 02:28:19 10° WNW 02:31:31 44° NNE 02:34:42 10° E visible
20 Jul -3.5 04:04:52 10° WNW 04:08:02 44° SW 04:11:11 10° SE visible
20 Jul -4.0 22:22:19 10° SW 22:25:34 76° SSE 22:28:51 10° ENE visible
20 Jul -2.2 23:59:12 10° W 00:02:16 36° N 00:05:22 10° ENE visible
21 Jul -2.2 01:36:11 10° WNW 01:39:16 36° N 01:42:22 10° E visible
21 Jul -4.0 03:12:40 10° WNW 03:15:58 75° SSW 03:19:15 10° SE visible
21 Jul -3.5 21:30:22 10° SW 21:33:30 44° SE 21:36:40 10° ENE visible
21 Jul -2.6 23:06:52 10° W 23:10:01 44° NNW 23:13:12 10° ENE visible
22 Jul -2.0 00:43:58 10° WNW 00:46:59 32° N 00:50:00 10° ENE visible
22 Jul -3.6 02:20:32 10° WNW 02:23:50 70° NNE 02:27:07 10° ESE visible
22 Jul -2.6 03:57:28 10° W 04:00:03 21° SW 04:02:38 10° S visible
22 Jul -3.3 22:14:33 10° WSW 22:17:48 60° NNW 22:21:03 10° ENE visible
22 Jul -1.9 23:51:41 10° WNW 23:54:41 31° N 23:57:41 10° ENE visible
23 Jul -2.5 01:28:24 10° WNW 01:30:51 39° NNW 01:30:51 39° NNW visible
23 Jul -3.8 21:22:20 10° WSW 21:25:37 90° SSE 21:28:54 10° ENE visible
23 Jul -2.1 22:59:20 10° WNW 23:02:22 34° N 23:05:25 10° ENE visible
24 Jul -2.4 00:36:14 10° WNW 00:39:21 38° NNE 00:39:27 38° NNE visible
24 Jul -2.4 22:06:57 10° W 22:10:04 40° NNW 22:13:12 10° ENE visible
24 Jul -2.1 23:44:01 10° WNW 23:47:03 33° N 23:48:31 22° NE visible
25 Jul -1.2 01:20:32 10° WNW 01:21:07 14° WNW 01:21:07 14° WNW visible
25 Jul -2.9 21:14:35 10° W 21:17:47 53° NNW 21:21:02 10° ENE visible
25 Jul -2.0 22:51:43 10° WNW 22:54:42 31° N 22:57:42 10° ENE visible
